User: anonymous   Login
Location: Caltech
(34.1382°N, 118.1253°W)
Time: 10:51:55
(UTC-07:00)
Language:

HO-68 - Orbit

View from above orbital plane
View from above orbital plane
View from above satellite
View from above satellite

Ground track
Ground track

The orbit data is extracted from the following two-line orbital elements,

1 36122U 09072B   15147.03777002 -.00000060  00000-0 -43517-4 0  9998
2 36122 100.1956 192.5967 0007598 162.9694 197.1682 13.16327117261671
Epoch (UTC): 27 May 2015 00:54:23
Eccentricity: 0.0007598
inclination: 100.1956°
perigee height: 1193 km
apogee height: 1204 km
right ascension of ascending node: 192.5967°
argument of perigee: 162.9694°
revolutions per day: 13.16327117
mean anomaly at epoch: 197.1682°
orbit number at epoch: 26167

The dashed part of the orbit path shows where the satellite is in the earth's shadow,  

DLR